Weather Roundup
Issued by NWS Chicago, IL

Home | Current Version | Previous Version | Text Only | Print | Product List | Glossary Off
Versions: 1 2 3 4 5 6 7 8 9 10 11 12 13 14 15 16 17 18 19 20 21 22 23 24 25 26 27 28 29 30 31 32 33 34 35 36 37 38 39 40 41 42 43 44 45 46 47 48 49 50

515
NZUS59 KLOT 131003
HRRLOT

CHICAGO AREA WEATHER ROUNDUP
NATIONAL WEATHER SERVICE CHICAGO/ROMEOVILLE IL
400 AM CST SAT FEB 13 2016

NOTE: "FAIR" INDICATES FEW OR NO CLOUDS BELOW 12,000 FEET WITH NO
SIGNIFICANT WEATHER AND/OR OBSTRUCTIONS TO VISIBILITY.

* THESE STATIONS ARE NOT UNDER NWS QUALITY CONTROL. THEY ALSO MAY NOT
  REPORT WEATHER SUCH AS PRECIPITATION OR FOG.

ILZ005-006-012>014-019>023-131100-
NORTHEAST ILLINOIS

CITY           SKY/WX    TMP DP  RH WIND       PRES   REMARKS
OHARE          CLEAR      4 -10  52 NW13      30.53R WCI -13
MIDWAY         PTCLDY     6 -11  45 NW14      30.54R WCI -11
AURORA         PTCLDY     4  -9  55 N14       30.55S WCI -14
WAUKEGAN       CLEAR      2 -11  54 NW8       30.51S WCI -12
DUPAGE AIRPORT PTCLDY     3 -11  52 NW15      30.53S WCI -16
WHEELING       CLEAR      3 -10  54 NW9       30.55R WCI -12
$$

WIZ051-052-058>065-066-070>072-131100-
SOUTHEAST WISCONSIN

CITY           SKY/WX    TMP DP  RH WIND       PRES   REMARKS
MILWAUKEE      CLEAR      2 -13  49 NW12      30.51R WCI -15
KENOSHA*       CLEAR      2 -11  54 NW10      30.51S WCI -14
RACINE*        CLEAR      2 -13  49 NW13G18   30.52S WCI -15
BURLINGTON     CLEAR      0 -13  54 NW9       30.52S WCI -16
$$

INZ001>003-010>013-019-020-131100-
NORTHWEST INDIANA

CITY           SKY/WX    TMP DP  RH WIND       PRES   REMARKS
GARY*          NOT AVBL
MICHIGAN CITY* NOT AVBL
RENSSELAER*    NOT AVBL
VALPARAISO     LGT SNOW   9   1  70 NW15G22   30.48R WCI  -8
$$

LMZ740>746-131100-
SOUTHERN LAKE MICHIGAN

STATION/POSITION TIME  SKY/WX   TEMP WIND        PRES    VSBY
                                AIR  DIR/SP/G
                 (UTC)          (F)  (DEG/KT/KT) (MB)    (MI)
HARRISON CRIB    0900             7  310/ 22/ 27   N/A
BURNHAM HARBOR   1000             6  300/ 16       N/A
CALUMET HARBOR   0900             5  290/ 11/ 16 1032.9R
BURNS HARBOR     0906            12  310/ 17     1032.5R
MICHIGAN CITY    0900            13  310/ 28/ 31   N/A
$$

ABBREVIATIONS USED IN REMARKS
   TC - TEMPERATURE IN CELSIUS
  WCI - WIND CHILL INDEX
   HX - HEAT INDEX
  VSB - VISIBILITY
$$




USA.gov is the U.S. government's official web portal to all federal, state and local government web resources and services.